RH
49 44 43 38 58 63 65 63 50 45 47 41 30 17 14 10 8 5 4 4 3 2 2 2 2 2 2 2 2 2 3 3 4 4 4 6 6 7 11 12 12 14 14 16 20 19 15
57 50 47 43 44 63 68 64 51 49 52 50 29 16 16 17 8 5 4 4 3 2 2 2 2 2 2 1 2 2 2 3 4 4 4 6 6 8 8 16 13 15 15 16 18 19 16
55 45 44 50 52 64 66 72 58 55 59 48 38 21 19 17 13 5 4 3 3 2 2 2 2 2 1 2 2 2 2 2 4 4 4 6 8 9 8 14 16 15 16 15 19 18 19
59 46 49 52 46 80 72 70 63 62 65 46 44 19 19 14 11 9 5 4 3 2 2 2 2 2 1 2 2 2 2 3 3 5 6 6 8 10 10 11 18 18 17 14 16 17 19
64 62 62 55 53 76 87 60 63 61 58 58 45 22 23 27 17 12 6 4 3 2 2 2 2 2 1 2 2 2 2 3 4 4 7 8 9 10 10 10 15 19 19 18 16 17 21
75 68 68 46 53 70 96 59 77 70 66 62 50 27 23 24 22 14 7 4 3 2 2 2 2 2 2 2 2 2 2 3 4 3 10 8 7 8 9 10 12 19 21 20 18 18 19
77 66 64 44 59 76 95 66 74 77 59 62 52 33 32 33 24 14 8 3 3 2 2 2 2 2 2 2 2 2 2 2 4 4 10 11 7 8 9 12 13 21 28 29 22 21 21
79 70 55 43 59 86 96 73 77 77 62 60 50 34 37 39 29 17 8 4 3 2 2 2 2 2 2 2 2 2 2 2 5 5 7 11 9 10 12 12 15 20 26 27 21 21 21
80 58 43 43 61 98 96 73 82 71 60 64 60 36 38 40 27 19 9 4 3 2 2 2 2 2 2 2 2 2 2 2 4 5 6 13 11 11 12 12 12 16 22 28 30 23 21
68 56 41 38 67 100 98 81 88 69 67 68 59 39 44 42 31 20 11 5 3 2 2 3 2 2 3 3 2 2 2 3 5 6 5 11 14 16 15 13 14 16 19 21 24 24 22
66 47 45 51 81 100 95 85 83 72 70 69 69 43 47 40 33 24 12 6 3 2 2 3 3 3 3 3 2 2 3 3 4 6 5 6 10 18 16 14 15 16 17 17 21 21 23
77 63 44 73 98 100 97 89 80 79 78 74 75 51 52 40 33 22 12 6 3 2 2 3 3 3 3 4 3 3 4 5 5 5 4 5 8 18 21 20 16 16 17 16 19 21 22
98 87 67 80 100 100 100 87 80 84 82 73 73 50 51 38 32 25 18 7 4 3 3 3 4 4 4 5 4 3 4 5 5 6 6 6 13 21 24 24 19 18 18 17 17 19 25
100 100 82 84 100 100 100 95 86 85 83 84 78 57 56 37 36 28 27 12 5 3 3 3 4 4 4 5 6 4 4 5 6 8 10 10 12 14 18 23 24 20 17 18 19 24 30
96 94 100 93 100 100 100 99 90 88 80 83 79 52 50 36 33 31 26 21 6 4 2 3 4 4 5 5 8 6 5 6 7 8 10 14 18 20 25 25 25 26 22 20 22 24 26
88 91 100 100 100 100 100 96 92 90 77 83 83 57 54 34 34 38 35 21 10 4 4 3 3 5 5 6 8 10 7 8 10 11 14 20 23 26 30 37 36 31 28 22 22 25 25
99 98 100 100 100 100 100 94 94 85 79 77 92 60 55 32 31 42 39 32 15 7 3 3 4 4 5 7 7 12 12 10 11 14 19 22 32 38 38 44 40 38 34 30 28 27 28
100 100 100 99 100 100 97 93 96 85 80 78 84 59 56 30 32 44 45 40 20 8 4 3 4 4 6 6 8 8 15 12 13 14 18 23 25 41 45 61 65 68 50 48 42 39 36
100 100 100 100 100 100 95 92 100 85 75 73 85 60 52 28 35 45 42 58 20 15 5 4 4 5 6 7 9 8 13 17 14 18 21 25 30 36 49 62 66 65 82 85 65 52 51
100 100 100 100 100 100 99 97 97 88 78 70 84 60 57 28 40 38 46 67 59 15 8 5 4 5 6 8 9 10 9 16 23 19 19 23 24 28 31 36 52 67 72 61 55 52 56
100 100 100 100 100 100 100 100 88 84 78 74 73 54 52 28 40 42 48 60 57 33 9 9 4 5 6 6 9 12 12 12 18 26 24 23 24 23 28 32 34 41 40 40 42 44 37
100 100 100 100 100 94 100 100 87 81 75 78 70 56 45 27 38 46 46 60 62 46 24 14 5 5 6 8 9 10 12 14 16 26 30 30 25 22 25 28 31 34 32 30 31 32 33
100 100 100 100 100 100 100 100 86 86 81 72 83 56 41 28 38 45 45 52 72 59 47 22 7 5 6 7 10 11 12 15 17 18 27 32 43 47 36 29 30 32 26 28 30 31 35
100 100 100 100 100 100 100 98 90 84 77 79 67 67 40 31 38 45 45 48 50 87 82 34 13 6 5 7 9 12 14 16 19 22 24 27 38 47 48 63 62 45 34 33 33 26 29
100 100 100 100 100 100 100 96 100 80 77 82 72 64 37 35 42 48 43 51 52 69 76 57 28 8 4 6 8 12 16 16 17 21 27 30 40 40 41 47 58 60 61 64 64 54 57
100 100 100 100 100 100 97 100 98 85 84 89 67 60 37 34 40 46 43 44 50 55 78 75 40 15 6 6 7 9 14 18 19 20 21 22 27 37 45 48 47 50 58 66 67 72 71
100 100 100 100 100 100 99 100 100 81 92 81 69 58 36 35 39 39 39 43 55 49 66 73 42 23 14 7 7 8 9 15 18 20 23 24 25 30 44 44 29 36 37 37 34 43 52
100 100 100 100 100 100 100 100 92 90 90 80 71 55 36 40 39 45 42 41 55 51 59 81 56 43 17 10 8 8 10 12 16 19 23 24 24 25 27 29 28 29 31 33 39 35 32
100 100 100 100 100 100 100 100 93 95 87 77 69 50 39 43 44 46 46 43 52 56 50 75 64 66 31 15 12 10 10 11 12 16 20 24 26 28 31 29 32 32 40 42 34 33 32
Wind_Speed
71 75 77 78 76 78 79 83 87 89 88 89 90 93 98 99 98 97 100 94 93 74 54 48 45 40 33 33 42 47 58 70 78 85 86 89 88 89 92 94 92 93 93 95 100 101 98
73 75 80 81 79 78 79 82 88 88 88 90 90 92 95 101 100 101 102 98 88 74 57 50 46 40 34 28 35 37 47 62 74 78 82 88 86 87 91 94 96 93 94 96 100 98 99
73 78 82 85 78 77 80 81 86 88 87 89 89 90 94 100 102 100 102 96 90 77 60 51 47 40 32 25 27 32 41 51 64 75 78 84 87 86 89 94 96 95 96 97 99 100 98
78 81 81 82 81 74 79 82 85 86 87 88 91 88 92 99 100 101 103 102 91 81 62 53 48 41 30 23 20 26 37 45 55 67 74 81 87 87 89 92 97 97 95 97 97 98 94
80 80 81 84 75 72 76 81 82 86 87 89 89 88 92 101 104 103 104 100 91 79 62 54 49 43 32 23 18 24 32 39 51 61 72 82 87 91 89 92 97 97 92 92 94 96 94
81 81 81 80 74 71 73 79 80 84 86 88 89 89 92 96 103 106 107 104 90 81 65 55 50 44 35 25 16 18 31 41 50 56 72 83 85 86 87 85 84 89 89 91 93 93 94
81 84 81 77 72 69 72 77 79 83 85 86 87 89 92 100 104 103 106 103 88 76 68 58 51 45 37 28 15 9 21 35 46 53 71 80 81 74 79 81 85 92 93 93 95 93 92
80 83 79 78 71 67 70 76 77 80 82 84 85 86 90 96 103 107 104 103 93 74 70 62 54 46 38 31 18 3 12 33 44 51 64 72 73 76 80 82 84 89 94 95 96 97 95
80 78 80 78 70 65 69 75 75 78 81 83 85 84 86 94 100 102 103 102 91 80 73 63 53 45 40 31 17 2 6 24 40 48 55 64 71 73 77 80 81 85 91 95 95 97 96
79 74 81 82 66 65 67 71 72 75 79 81 81 82 84 91 98 98 103 103 95 80 72 68 54 46 39 31 17 3 10 25 34 41 48 60 64 70 76 77 75 79 85 90 96 97 97
75 80 79 69 61 63 65 69 71 72 76 78 80 79 82 90 92 95 101 98 92 83 71 64 57 45 37 32 21 6 8 16 33 40 44 54 59 64 67 70 72 73 78 82 90 95 96
69 67 75 62 57 62 62 66 69 70 73 76 79 78 81 88 93 93 95 90 92 85 75 62 58 46 37 33 24 8 11 11 25 32 34 41 45 55 62 66 68 71 72 74 78 85 88
61 61 62 58 56 59 60 64 65 68 71 74 76 76 78 86 91 94 91 91 88 87 77 66 60 51 38 32 25 11 10 10 14 18 26 30 42 51 57 59 66 67 67 67 70 75 79
56 57 57 56 55 57 58 62 64 66 69 71 73 75 77 83 87 91 94 89 87 85 79 68 61 52 37 29 24 12 9 9 10 10 16 26 36 42 48 52 57 61 62 64 66 70 73
52 55 55 56 54 57 56 59 61 65 66 68 71 71 73 80 84 91 91 90 83 83 76 68 61 51 37 27 22 15 5 9 12 11 12 17 24 30 39 45 49 53 57 60 62 66 70
50 52 54 56 54 54 56 57 59 63 64 67 70 70 70 77 81 89 97 90 76 85 78 68 63 50 37 25 20 14 7 6 11 14 13 16 15 17 25 38 41 46 54 56 57 61 64
48 49 52 54 52 54 56 55 58 61 63 64 68 69 69 76 80 89 95 94 83 82 77 71 62 55 39 23 17 13 9 4 9 15 16 20 16 16 23 26 37 42 43 48 55 56 57
50 48 52 50 48 51 53 53 57 60 62 63 65 66 68 71 77 88 94 97 83 83 76 71 63 54 40 29 15 12 8 2 6 12 16 15 15 23 22 22 25 26 37 44 48 53 55
49 48 50 48 48 52 53 52 56 58 60 61 62 64 66 70 74 84 90 101 87 82 79 73 65 57 47 29 20 9 5 4 1 11 16 18 23 23 24 27 28 34 31 37 43 52 54
50 45 45 48 50 53 52 51 55 57 58 58 58 60 65 66 74 79 89 97 102 89 78 77 66 58 48 31 21 14 7 1 3 6 10 15 22 25 30 33 34 33 35 41 47 49 57
48 46 46 47 50 51 50 50 53 55 56 56 57 57 62 62 72 79 85 93 98 93 81 82 72 54 49 34 21 15 10 7 5 6 8 13 18 22 27 34 37 37 40 41 41 47 40
48 45 44 49 49 48 47 49 53 54 54 55 54 56 58 61 70 78 81 88 94 93 85 80 70 60 49 35 31 19 13 9 10 8 9 11 14 17 19 21 23 27 31 33 35 38 38
47 43 43 49 49 46 46 48 50 53 51 51 53 53 57 59 67 75 78 84 94 96 89 82 62 63 50 40 27 25 20 16 12 13 14 14 14 16 17 20 22 28 26 27 30 33 33
46 44 45 49 49 45 42 45 47 51 51 50 51 53 54 57 64 73 77 80 87 93 92 85 63 60 46 40 28 23 21 19 18 17 17 16 16 19 19 20 25 27 26 27 28 29 28
45 44 44 46 45 41 41 44 47 49 49 49 48 51 52 56 62 70 77 83 86 90 90 83 74 57 51 39 29 23 21 20 19 21 22 20 21 21 23 21 24 26 25 23 24 23 26
45 43 43 43 42 41 42 43 47 46 47 48 48 50 49 53 61 69 74 79 83 86 82 84 77 69 53 48 37 24 20 21 23 24 23 24 24 24 26 27 29 27 29 30 30 28 28
44 43 42 39 41 41 40 44 47 44 47 48 48 50 50 53 59 63 71 78 86 83 81 79 71 60 69 53 42 30 24 18 21 22 24 26 26 27 28 32 31 30 31 32 32 32 32
43 42 40 39 42 41 40 43 47 44 46 48 48 50 50 52 59 65 71 75 82 82 80 74 73 65 58 55 42 33 26 24 20 20 23 26 27 28 30 33 31 29 31 31 33 34 33
38 38 38 40 41 40 41 44 44 45 47 47 48 48 50 54 60 65 72 74 81 83 78 67 60 72 61 49 46 40 30 26 24 22 24 24 25 27 28 30 30 28 30 33 34 34 35
Wind_Direction
331 334 332 333 329 329 330 330 331 334 336 337 342 340 340 341 348 353 353 352 344 342 335 328 325 316 298 272 254 241 231 226 222 220 218 217 217 217 216 218 218 216 215 215 217 221 221
328 330 331 333 328 327 329 328 331 333 337 337 340 341 341 340 346 353 353 353 345 343 344 336 334 324 310 280 255 244 229 226 224 222 216 217 216 216 214 215 217 215 215 215 217 219 221
324 327 328 329 326 325 326 327 330 331 335 338 340 340 340 341 346 352 354 353 349 349 347 342 340 332 317 290 260 243 231 223 221 220 215 215 215 214 215 214 216 217 214 214 216 218 220
322 323 324 326 325 323 324 326 329 331 335 337 340 340 339 340 345 350 354 353 348 348 349 346 345 338 325 303 269 236 230 222 217 216 213 213 215 213 214 214 214 217 216 215 216 218 219
318 320 322 324 321 321 322 325 329 331 335 337 339 340 340 343 344 348 352 355 350 350 350 350 349 347 341 317 277 237 224 218 215 212 208 210 214 213 212 213 214 216 216 216 217 218 217
315 319 320 322 318 320 319 324 328 329 333 337 338 340 342 343 341 348 351 355 353 350 352 353 354 353 348 331 295 250 221 214 207 206 205 211 213 212 212 213 215 217 217 218 218 218 217
311 314 317 319 315 318 318 322 326 328 333 337 337 341 343 344 342 347 353 357 356 355 355 356 358 356 353 343 323 268 224 212 207 200 204 211 213 211 212 212 213 214 214 216 217 218 219
308 310 313 317 312 315 317 320 325 328 332 335 337 341 344 343 344 347 352 356 354 355 360 359 359 357 1 353 337 290 220 205 201 200 204 207 208 208 211 211 210 213 216 218 220 218 217
305 307 312 314 309 312 316 318 324 327 332 334 337 342 344 342 344 348 348 353 358 359 2 1 358 0 6 1 343 324 158 196 199 200 201 204 208 206 211 213 211 213 214 217 220 222 220
301 304 309 310 307 310 314 318 323 327 330 334 338 342 343 342 346 351 351 353 355 359 4 360 1 2 10 9 358 45 145 180 192 202 200 202 208 206 210 212 213 214 216 218 220 223 224
295 301 303 304 305 307 312 317 322 327 330 334 337 342 343 342 346 350 351 354 356 2 5 4 359 1 8 18 12 58 105 185 186 198 207 204 201 207 211 213 214 216 218 219 220 223 226
291 295 300 299 302 305 312 315 321 326 329 332 337 341 343 342 345 348 352 357 357 357 2 5 3 360 5 20 17 51 109 153 184 200 205 201 202 205 208 212 216 216 218 219 221 224 227
284 290 294 295 299 304 311 314 320 324 329 331 336 339 342 341 345 349 352 356 358 358 1 3 7 1 1 19 19 35 105 138 181 198 205 200 197 203 208 212 215 215 218 220 222 225 227
280 284 289 293 299 304 308 312 319 323 329 332 336 338 343 342 348 350 355 356 358 358 2 3 6 4 359 11 21 29 104 127 147 166 192 195 203 205 211 212 215 218 219 220 220 222 226
277 281 286 291 296 301 306 310 318 322 328 331 335 337 344 342 349 349 351 5 1 358 4 5 6 5 359 5 19 19 104 132 128 132 167 185 207 209 213 216 216 218 220 221 222 225 228
274 280 283 287 293 299 305 309 316 321 326 330 334 335 343 344 351 352 351 358 9 1 0 4 2 4 3 2 13 8 21 139 141 150 155 141 162 192 211 216 219 220 222 222 224 227 229
270 277 281 285 291 296 302 308 314 321 324 329 332 334 342 343 352 353 355 360 10 1 1 2 2 2 359 3 7 15 358 163 178 168 167 168 160 159 179 194 211 216 220 222 224 226 228
266 273 277 284 290 294 300 307 313 319 323 327 331 334 341 341 354 357 356 357 9 7 4 4 0 358 358 354 3 8 5 313 190 186 182 191 198 177 173 184 195 206 217 221 223 224 225
262 269 273 282 288 292 298 306 310 318 322 326 331 334 339 341 357 359 358 357 358 8 5 7 1 356 356 350 345 2 14 351 252 176 192 192 189 195 197 192 198 202 209 212 216 222 222
258 267 273 278 283 290 297 304 308 315 320 325 330 334 339 342 0 1 2 1 357 358 7 7 3 356 354 345 343 329 336 175 225 235 212 210 208 213 209 211 202 212 219 221 222 226 228
254 259 267 273 279 288 295 301 307 312 315 324 329 334 340 349 1 4 3 1 357 4 3 6 5 356 351 342 339 321 309 293 232 212 223 212 219 223 222 221 217 219 223 226 228 232 234
250 255 263 270 277 284 293 300 307 309 314 322 331 334 338 351 2 4 7 5 358 356 4 6 4 356 352 346 333 324 301 273 273 251 233 237 227 222 218 222 225 230 232 232 232 233 232
249 252 258 268 275 285 295 300 302 305 315 320 330 332 337 352 2 4 6 7 5 358 1 4 5 357 353 349 333 319 309 288 266 255 242 237 238 237 238 240 240 239 234 235 234 235 233
247 248 255 266 275 283 294 296 301 303 311 321 329 331 337 352 1 4 5 9 3 5 2 2 6 357 349 349 336 318 310 291 280 268 260 251 244 247 247 242 243 249 246 242 245 242 237
244 248 254 262 274 283 291 292 297 304 313 321 324 328 339 353 360 1 2 7 6 5 358 354 1 4 347 340 334 324 310 289 269 260 261 261 257 255 253 254 257 260 266 264 260 258 258
240 246 250 262 271 281 284 289 294 304 311 318 321 326 338 351 359 1 2 7 8 5 359 360 3 2 356 341 338 323 308 292 278 267 262 259 256 252 256 258 256 262 263 263 264 266 266
241 243 249 260 268 276 281 287 293 303 310 316 321 325 338 353 358 1 3 5 7 3 1 354 355 358 353 348 344 328 312 290 279 272 263 259 258 256 252 253 255 256 257 260 263 262 263
235 241 252 257 263 273 277 284 290 303 307 313 318 323 339 350 357 357 2 6 5 3 4 1 357 2 0 351 349 337 321 303 287 276 262 257 257 259 258 259 260 257 259 259 259 262 262
237 246 249 253 263 270 276 280 290 299 303 309 317 325 338 348 354 356 358 2 3 3 4 0 3 7 359 357 354 346 327 312 300 285 274 266 265 265 265 263 265 260 256 257 256 258 262